Branson, MO

8:39 AM CDT on May 28, 2017 (GMT -0500)
Branson

Weather History for KBBG - March, 2013

Change the Weather History Date:

Friday, March 15, 2013

  Actual Average (KHRO) Record (KHRO)
Temperature  
Mean Temperature 68 °F -  
Max Temperature 80 °F 57 °F 85 °F (2016)
Min Temperature 55 °F 37 °F 16 °F (1909)
Cooling Degree Days 2    
Growing Degree Days 18 (Base 50)    
Moisture  
Dew Point 40 °F    
Average Humidity 43    
Maximum Humidity 58    
Minimum Humidity 21    
Precipitation  
Precipitation 0.00 in - - ()
Sea Level Pressure  
Sea Level Pressure 29.96 in    
Wind  
Wind Speed 9 mph (SW)    
Max Wind Speed 17 mph    
Max Gust Speed 29 mph    
Visibility 10 miles    
Events      
Averages and records for this station are not official NWS values.
T = Trace of Precipitation, MM = Missing Value Source: NWS Daily Summary

Daily Weather History Graph

Daily Weather History Graph

Search for Another Location

Airport or City:

Trip Planner

Search our weather history database for the weather conditions in past years. The results will help you decide how hot, cold, wet, or windy it might be!

Date:

Astronomy

Mar. 15, 2013 Rise Set
Actual Time 7:23 AM CDT 7:20 PM CDT
Civil Twilight 6:57 AM CDT 7:46 PM CDT
Nautical Twilight 6:27 AM CDT 8:16 PM CDT
Astronomical Twilight 5:57 AM CDT 8:46 PM CDT
Moon 9:21 AM CDT (3/15) 11:27 PM CDT (3/15)
Length of Visible Light 12h 48m
Length of Day
11h 57m
Waxing Crescent, 15% of the Moon is Illuminated
Mar 15
Waxing Crescent
Mar 19
First Quarter
Mar 27
Full
Apr 2
Last Quarter
Apr 10
New

Hourly Weather History & Observations

Time (CDT) Temp. Dew Point Humidity Pressure Visibility Wind Dir Wind Speed Gust Speed Precip Events Conditions
12:15 AM 57.2 °F 37.4 °F 48% 30.11 in 10.0 mi SW 8.1 mph - N/A   Mostly Cloudy
12:55 AM 57.2 °F 39.2 °F 51% 30.11 in 10.0 mi SW 8.1 mph - N/A   Overcast
1:15 AM 57.2 °F 39.2 °F 51% 30.10 in 10.0 mi SW 8.1 mph - N/A   Overcast
2:15 AM 57.2 °F 39.2 °F 51% 30.10 in 10.0 mi SW 9.2 mph - N/A   Scattered Clouds
2:55 AM 57.2 °F 41.0 °F 55% 30.09 in 10.0 mi SW 9.2 mph - N/A   Scattered Clouds
3:15 AM 57.2 °F 41.0 °F 55% 30.08 in 10.0 mi WSW 8.1 mph - N/A   Partly Cloudy
3:35 AM 57.2 °F 41.0 °F 55% 30.07 in 10.0 mi WSW 6.9 mph - N/A   Partly Cloudy
3:55 AM 57.2 °F 41.0 °F 55% 30.07 in 10.0 mi WSW 8.1 mph - N/A   Mostly Cloudy
4:15 AM 57.2 °F 41.0 °F 55% 30.07 in 10.0 mi WSW 6.9 mph - N/A   Mostly Cloudy
4:35 AM 57.2 °F 41.0 °F 55% 30.06 in 10.0 mi WSW 8.1 mph - N/A   Partly Cloudy
4:55 AM 57.2 °F 41.0 °F 55% 30.06 in 10.0 mi WSW 8.1 mph - N/A   Partly Cloudy
5:15 AM 55.4 °F 41.0 °F 58% 30.06 in 10.0 mi WSW 9.2 mph - N/A   Clear
5:35 AM 57.2 °F 41.0 °F 55% 30.05 in 10.0 mi WSW 9.2 mph - N/A   Clear
5:55 AM 55.4 °F 41.0 °F 58% 30.06 in 10.0 mi West 6.9 mph - N/A   Clear
6:15 AM 55.4 °F 41.0 °F 58% 30.06 in 10.0 mi WSW 8.1 mph - N/A   Clear
6:55 AM 55.4 °F 41.0 °F 58% 30.05 in 10.0 mi SW 5.8 mph - N/A   Clear
7:50 AM 57.2 °F 41.0 °F 55% 30.05 in 10.0 mi WSW 8.1 mph - N/A   Scattered Clouds
8:50 AM 60.8 °F 41.0 °F 48% 30.03 in 10.0 mi WSW 11.5 mph 16.1 mph N/A   Scattered Clouds
9:50 AM 64.4 °F 42.8 °F 45% 30.02 in 10.0 mi WSW 11.5 mph - N/A   Mostly Cloudy
10:45 AM 68.0 °F 41.0 °F 37% 29.99 in 10.0 mi WSW 11.5 mph 19.6 mph N/A   Mostly Cloudy
11:45 AM 73.4 °F 41.0 °F 31% 29.98 in 10.0 mi West 9.2 mph 24.2 mph N/A   Mostly Cloudy
12:55 PM 75.2 °F 41.0 °F 29% 29.96 in 10.0 mi WSW 9.2 mph 19.6 mph N/A   Mostly Cloudy
1:52 PM 77.0 °F 39.2 °F 26% 29.93 in 10.0 mi WSW 11.5 mph 20.7 mph N/A   Mostly Cloudy
2:46 PM 80.6 °F 39.2 °F 23% 29.89 in 10.0 mi SW 15.0 mph 24.2 mph N/A   Mostly Cloudy
3:45 PM 80.6 °F 37.4 °F 21% 29.86 in 10.0 mi SW 17.3 mph 28.8 mph N/A   Mostly Cloudy
5:47 PM 77.0 °F 37.4 °F 24% 29.83 in 10.0 mi SW 15.0 mph 21.9 mph N/A   Mostly Cloudy
6:50 PM 75.2 °F 39.2 °F 27% 29.82 in 10.0 mi SW 13.8 mph 23.0 mph N/A   Overcast
7:52 PM 71.6 °F 39.2 °F 31% 29.82 in 10.0 mi SSW 12.7 mph - N/A   Overcast
8:47 PM 69.8 °F 39.2 °F 33% 29.81 in 10.0 mi SW 11.5 mph - N/A   Overcast
8:55 PM 69.8 °F 39.2 °F 33% 29.81 in 10.0 mi SW 8.1 mph - N/A   Clear
9:15 PM 69.8 °F 39.2 °F 33% 29.82 in 10.0 mi SW 9.2 mph - N/A   Clear
9:35 PM 68.0 °F 39.2 °F 35% 29.82 in 10.0 mi SW 8.1 mph - N/A   Clear
9:55 PM 68.0 °F 41.0 °F 37% 29.82 in 10.0 mi SW 8.1 mph - N/A   Clear
10:15 PM 68.0 °F 41.0 °F 37% 29.82 in 10.0 mi SW 10.4 mph 17.3 mph N/A   Clear
10:35 PM 68.0 °F 41.0 °F 37% 29.81 in 10.0 mi SW 9.2 mph - N/A   Clear
10:55 PM 66.2 °F 41.0 °F 40% 29.81 in 10.0 mi SW 11.5 mph 16.1 mph N/A   Clear
11:15 PM 66.2 °F 42.8 °F 43% 29.81 in 10.0 mi SW 10.4 mph 17.3 mph N/A   Clear
11:35 PM 66.2 °F 42.8 °F 43% 29.80 in 10.0 mi SSW 10.4 mph 17.3 mph N/A   Clear
11:55 PM 66.2 °F 44.6 °F 46% 29.79 in 10.0 mi SW 11.5 mph 19.6 mph N/A   Clear